Davenport, IA

5:32 AM CDT on August 19, 2017 (GMT -0500)
Davenport Municipal

Weather History for KDVN - September, 2013

Change the Weather History Date:

Sunday, September 8, 2013

  Actual Average Record
Temperature  
Mean Temperature 78 °F 66 °F  
Max Temperature 86 °F 78 °F 96 °F (1978)
Min Temperature 70 °F 55 °F 42 °F (2010)
Degree Days  
Heating Degree Days 0 2  
Month to date heating degree days 3 11  
Since 1 July heating degree days 22 25  
Cooling Degree Days 13 3  
Month to date cooling degree days 58 30  
Year to date cooling degree days 831 734  
Growing Degree Days 28 (Base 50)    
Moisture  
Dew Point 67 °F    
Average Humidity 73    
Maximum Humidity 90    
Minimum Humidity 55    
Precipitation  
Precipitation 0.00 in 0.10 in 1.29 in (1948)
Month to date precipitation T 0.76  
Year to date precipitation 28.39 26.58  
Snow  
Snow 0.00 in - - ()
Month to date snowfall 0.0  
Since 1 July snowfall 0.0  
Since 1 September snowfall 0.0  
Snow Depth 0.00 in    
Sea Level Pressure  
Sea Level Pressure 29.93 in    
Wind  
Wind Speed 11 mph (East)    
Max Wind Speed 21 mph    
Max Gust Speed 25 mph    
Visibility 8 miles    
Events      
T = Trace of Precipitation, MM = Missing Value Source: NWS Daily Summary

Daily Weather History Graph

Daily Weather History Graph

Search for Another Location

Airport or City:

Trip Planner

Search our weather history database for the weather conditions in past years. The results will help you decide how hot, cold, wet, or windy it might be!

Date:

Astronomy

Sep. 08, 2013 Rise Set
Actual Time 6:35 AM CDT 7:23 PM CDT
Civil Twilight 6:07 AM CDT 7:51 PM CDT
Nautical Twilight 5:34 AM CDT 8:24 PM CDT
Astronomical Twilight 4:59 AM CDT 8:59 PM CDT
Moon 9:56 AM CDT (9/8) 8:55 PM CDT (9/8)
Length of Visible Light 13h 43m
Length of Day
12h 47m
Waxing Crescent, 11% of the Moon is Illuminated
Sep 8
Waxing Crescent
Sep 12
First Quarter
Sep 19
Full
Sep 26
Last Quarter
Oct 4
New

Hourly Weather History & Observations

Time (CDT) Temp. Heat Index Dew Point Humidity Pressure Visibility Wind Dir Wind Speed Gust Speed Precip Events Conditions
12:52 AM 75.9 °F - 66.9 °F 74% 29.88 in 10.0 mi SSE 5.8 mph - N/A   Clear
1:52 AM 73.0 °F - 66.9 °F 81% 29.88 in 8.0 mi East 6.9 mph - N/A   Clear
2:52 AM 73.0 °F - 66.9 °F 81% 29.88 in 9.0 mi East 8.1 mph - N/A   Mostly Cloudy
3:52 AM 73.9 °F - 66.0 °F 76% 29.88 in 10.0 mi East 9.2 mph - N/A   Mostly Cloudy
4:52 AM 73.0 °F - 66.0 °F 79% 29.90 in 10.0 mi East 12.7 mph - N/A   Clear
5:52 AM 72.0 °F - 64.9 °F 78% 29.92 in 9.0 mi East 12.7 mph - N/A   Clear
6:52 AM 71.1 °F - 66.9 °F 87% 29.95 in 5.0 mi East 15.0 mph 21.9 mph N/A   Partly Cloudy
7:23 AM 71.6 °F - 66.2 °F 83% 29.98 in 4.0 mi East 15.0 mph - N/A   Mostly Cloudy
7:52 AM 71.1 °F - 66.9 °F 87% 29.96 in 4.0 mi East 13.8 mph - N/A   Overcast
8:52 AM 71.1 °F - 66.0 °F 84% 29.98 in 6.0 mi East 13.8 mph - N/A   Haze
9:52 AM 73.0 °F - 66.0 °F 79% 29.99 in 6.0 mi East 9.2 mph 21.9 mph N/A   Haze
10:23 AM 77.0 °F - 66.2 °F 69% 30.00 in 7.0 mi East 11.5 mph - N/A   Mostly Cloudy
10:52 AM 78.1 °F - 66.9 °F 68% 29.99 in 8.0 mi East 13.8 mph - N/A   Mostly Cloudy
11:03 AM 78.8 °F - 66.2 °F 65% 30.00 in 9.0 mi ESE 11.5 mph - N/A   Partly Cloudy
11:52 AM 79.0 °F - 66.9 °F 66% 29.98 in 9.0 mi East 10.4 mph - N/A   Partly Cloudy
12:52 PM 82.0 °F 84.5 °F 66.9 °F 60% 29.96 in 10.0 mi East 13.8 mph - N/A   Clear
1:52 PM 82.9 °F 85.8 °F 68.0 °F 60% 29.94 in 9.0 mi ENE 12.7 mph - N/A   Partly Cloudy
2:52 PM 84.9 °F 88.2 °F 68.0 °F 57% 29.93 in 9.0 mi East 12.7 mph - N/A   Scattered Clouds
3:52 PM 84.9 °F 87.6 °F 66.9 °F 55% 29.90 in 9.0 mi East 13.8 mph 20.7 mph N/A   Partly Cloudy
4:52 PM 82.9 °F 85.8 °F 68.0 °F 60% 29.90 in 8.0 mi East 10.4 mph - N/A   Mostly Cloudy
5:52 PM 82.9 °F 85.8 °F 68.0 °F 60% 29.89 in 7.0 mi East 10.4 mph - N/A   Mostly Cloudy
6:52 PM 81.0 °F 83.8 °F 68.0 °F 65% 29.89 in 7.0 mi ESE 9.2 mph - N/A   Scattered Clouds
7:52 PM 79.0 °F - 69.1 °F 72% 29.90 in 8.0 mi East 8.1 mph - N/A   Mostly Cloudy
8:52 PM 77.0 °F - 69.1 °F 76% 29.91 in 7.0 mi East 12.7 mph - N/A   Mostly Cloudy
9:52 PM 75.9 °F - 69.1 °F 79% 29.90 in 6.0 mi East 9.2 mph - N/A   Haze
10:52 PM 73.0 °F - 68.0 °F 84% 29.91 in 5.0 mi ESE 9.2 mph - N/A   Haze
11:52 PM 72.0 °F - 68.0 °F 87% 29.91 in 5.0 mi East 6.9 mph - N/A   Clear